User: anonymous   Login
Location: Hamilton
(37.7830°S, 175.2830°E)
Time: 06:08:12
(UTC+12:00)
Language:

Cosmos 1515 Rocket - Orbit

View from above orbital plane
View from above orbital plane
View from above satellite
View from above satellite

Ground track
Ground track

The orbit data is extracted from the following two-line orbital elements,

1 14552U 83122B   19113.61863663 +.00000063 +00000-0 +47466-5 0  9998
2 14552 082.5245 164.2794 0018833 092.2170 268.1202 14.83474970888228
Epoch (UTC): 23 April 2019 14:50:50
Eccentricity: 0.0018833
inclination: 82.5245°
perigee height: 605 km
apogee height: 631 km
right ascension of ascending node: 164.2794°
argument of perigee: 92.2170°
revolutions per day: 14.83474970
mean anomaly at epoch: 268.1202°
orbit number at epoch: 88822

The dashed part of the orbit path shows where the satellite is in the earth's shadow,  

DLR